Lid_Strength_Index
3 7 8 9 12 13 14 11 10 9 8 8 8 6 7 7 8 11 3 1 0 0 -0 -0 -1 -1 -1 -1 -1 -1 -1 -1 -1 -1 -1 -1 -1 -1 -1 -1 -1 -2 -1 -2 -2 -2 -2 -2 -2
3 5 7 11 14 16 14 8 10 8 6 6 8 7 6 7 4 4 3 1 0 0 -0 -0 -1 -1 -1 -1 -1 -1 -1 -1 -1 -1 -1 -1 -1 -1 -1 -1 -1 -1 -1 -2 -2 -2 -2 -2 -1
4 4 9 13 16 15 13 8 9 7 6 6 9 5 5 6 3 4 2 1 0 0 -0 -0 -0 -1 -1 -1 -1 -1 -1 -1 -1 -1 -1 -1 -1 -1 -1 -1 -1 -1 -1 -2 -2 -2 -2 -2 -1
6 6 8 13 15 13 12 11 9 7 6 6 6 7 5 3 4 3 1 0 1 0 -0 -0 -0 -1 -1 -1 -1 -1 -1 -1 -1 -1 -1 -1 -1 -1 -1 -1 -1 -2 -1 -2 -1 -2 -2 -1 -1
6 8 11 13 12 11 11 11 9 8 7 7 6 7 7 4 4 3 1 1 1 1 0 -0 -0 -0 -1 -1 -1 -1 -1 -1 -1 -1 -1 -1 -1 -1 -1 -1 -1 -1 -2 -1 -1 -2 -2 -2 -2
9 9 13 14 11 9 9 10 8 8 6 6 7 7 7 5 5 5 2 1 1 1 0 0 -0 -0 -0 -1 -1 -1 -1 -1 -1 -1 -1 -1 -1 -1 -1 -1 -1 -1 -2 -2 -2 -2 -2 -2 -2
10 12 13 12 11 9 7 7 8 7 7 8 6 8 6 6 5 5 5 1 1 0 0 -0 -0 -0 -1 -0 -1 -1 -1 -1 -1 -1 -1 -1 -1 -1 -1 -1 -1 -1 -2 -2 -2 -2 -2 -2 -2
9 11 13 12 11 11 7 8 8 7 6 3 4 7 9 6 4 5 5 1 2 1 0 0 0 -0 -0 -0 -1 -0 -1 -1 -1 -1 -1 -1 -1 -1 -1 -1 -1 -2 -2 -2 -2 -2 -2 -2 -2
8 13 15 12 11 9 7 9 7 5 6 5 5 5 4 4 4 5 5 2 2 1 1 0 0 -0 -0 -0 -0 -1 -1 -1 -1 -1 -1 -0 -0 -0 -0 -1 -1 -1 -2 -2 -2 -2 -2 -2 -2
11 15 13 10 9 9 8 9 9 7 7 9 7 5 4 3 5 5 5 5 3 2 1 1 1 0 0 -0 -0 -0 -0 -0 -0 -0 -0 -0 0 0 -0 -1 -1 -1 -2 -2 -1 -2 -2 -1 0
12 13 11 9 8 8 8 9 8 8 9 7 6 5 5 4 5 6 6 5 3 2 1 1 1 1 1 0 0 -0 0 0 0 0 0 1 0 1 0 0 0 0 -1 -0 -0 -0 -0 0 0
13 10 9 9 8 8 8 8 9 8 8 6 5 5 4 5 5 5 6 5 4 4 2 1 1 1 2 0 0 0 0 0 1 0 0 1 1 1 0 0 1 0 0 0 0 0 0 0 0
12 10 9 8 8 8 7 8 9 9 7 5 4 4 5 5 5 4 5 4 4 4 2 2 1 1 1 0 0 0 0 0 0 0 0 -0 0 0 0 0 0 1 1 0 1 1 1 1 1
10 10 10 10 10 9 9 8 8 8 7 7 6 6 5 5 5 5 5 4 4 5 2 2 1 1 0 0 1 1 0 0 -0 0 -0 -0 0 0 0 0 0 1 1 1 1 1 2 2 1
10 12 11 10 10 10 8 10 9 7 6 8 8 6 5 6 6 5 4 5 3 5 4 1 1 1 1 1 0 0 1 1 0 0 -0 -0 0 0 0 0 1 1 1 1 1 1 2 2 2
12 13 15 11 9 8 9 12 9 7 7 7 7 8 7 6 5 5 4 4 4 3 3 2 1 1 1 1 1 1 1 1 1 0 -0 -0 -0 0 0 1 0 1 2 2 2 2 3 2 2
14 16 14 12 9 9 9 12 9 7 7 7 7 6 7 8 6 5 4 4 3 2 4 4 2 1 1 1 1 1 1 1 1 1 1 0 -0 -0 0 1 1 1 2 2 2 2 3 3 2
15 15 13 13 10 10 11 12 10 8 8 7 8 8 7 6 6 4 4 5 2 2 2 4 4 2 1 1 1 1 1 1 0 0 1 0 -0 -0 0 0 1 2 2 2 3 3 3 2 2
11 12 13 11 9 11 12 12 10 9 9 9 8 8 8 7 5 5 3 2 3 3 3 3 3 4 2 2 3 3 2 2 1 1 -0 -0 0 -0 0 1 2 1 2 2 2 3 3 3 2
10 12 12 10 9 10 11 11 10 9 9 9 8 8 8 7 6 4 3 3 3 3 3 3 3 4 5 5 5 3 2 1 1 1 0 0 1 1 0 1 1 2 2 2 2 3 3 3 1
11 12 12 12 10 10 11 13 11 9 9 8 8 8 7 7 7 5 4 4 4 3 3 3 3 3 5 5 5 5 4 4 2 2 2 1 0 0 1 0 1 1 2 1 2 2 2 4 2
14 10 10 10 12 16 11 16 13 10 9 9 8 9 8 7 6 6 4 5 4 4 4 4 4 4 5 4 5 6 6 5 5 4 2 2 2 1 0 1 1 1 1 2 2 2 2 2 3
11 9 10 11 13 15 14 16 15 11 11 9 8 7 7 6 6 6 4 3 3 4 4 3 3 3 2 2 2 4 5 4 3 2 2 3 2 0 0 0 0 1 1 1 2 2 2 1 2
8 10 12 13 15 18 15 15 14 13 11 10 7 7 6 6 6 6 3 3 4 3 4 3 3 3 2 2 3 3 3 3 3 3 3 2 1 1 1 0 0 1 1 1 1 1 2 2 1
11 14 17 18 18 17 14 15 14 11 9 8 8 7 7 7 6 5 4 4 4 4 4 3 3 3 3 2 2 2 3 3 3 3 3 3 2 2 2 1 1 1 0 1 1 1 1 1 2
13 13 16 20 20 17 13 16 13 9 7 7 6 7 7 7 6 6 4 4 4 4 4 3 3 3 2 3 3 2 3 2 2 2 2 2 2 2 1 1 1 1 0 0 0 1 1 1 1
12 14 11 14 15 19 16 13 10 8 8 7 7 7 7 6 6 6 5 4 4 5 5 3 3 3 3 2 2 3 2 3 2 2 2 2 2 1 1 1 1 1 1 1 1 1 1 1 1
10 9 15 15 21 22 18 16 15 11 9 8 8 9 8 7 6 6 5 4 4 5 4 3 3 3 3 2 2 2 2 3 2 2 2 2 2 1 1 1 1 1 1 1 1 1 1 1 1
12 13 12 13 16 20 21 18 10 10 9 9 8 8 8 8 7 6 6 5 6 6 5 3 3 3 3 2 2 3 3 2 2 2 2 1 1 1 1 1 1 1 1 1 1 1 1 2 2
10 12 13 17 19 17 18 17 8 8 8 8 7 7 6 6 6 6 6 5 5 6 6 5 3 3 3 3 2 3 3 3 3 3 2 1 1 1 1 1 1 1 1 1 2 2 1 2 2